Date String (YYYY-MM-DD hh:mm:ss) UTC,Instrument flags,Ambient pressure (hPa),Sample flow (lpm),Bypass flow (lpm),Sample temperature (°C),Ambient temperature (°C),ASC tube jacket temperature (°C),LED temperature (°C),Box temperature (°C),Sample RH (%),Span deviation,Mass concentration (μg/m³),Mass concentration (μg/m³),Mass concentration (μg/m³)
DateTimeUTC,F1_M11,P_M11,Q1_M11,Q2_M11,T1_M11,T2_M11,T3_M11,T4_M11,T5_M11,U1_M11,ZSPAN_M11,X0_M11,X2_M11,X1_M11
2022-05-07 05:00:00,,0822.2,5.02,0.00,29.4,27.3,00.0,38.5,31.1,12.0,0000.0,0010.60,0003.49,0001.97
2022-05-07 05:01:00,,0822.1,5.00,0.00,29.4,27.6,00.0,38.5,31.1,11.8,0000.0,0009.98,0003.44,0001.96
2022-05-07 05:02:00,,0822.2,5.00,0.00,29.4,27.7,00.0,38.5,31.1,12.0,0000.0,0010.17,0003.42,0001.95
2022-05-07 05:03:00,,0822.2,5.00,0.00,29.4,27.9,00.0,38.5,31.1,12.4,0000.0,0010.58,0003.42,0001.95
2022-05-07 05:04:00,,0822.2,5.00,0.00,29.4,28.0,00.0,38.4,31.1,12.3,0000.0,0010.80,0003.47,0001.98
2022-05-07 05:05:00,,0822.2,5.00,0.00,29.4,28.0,00.0,38.4,31.1,12.2,0000.0,0010.96,0003.50,0001.99
2022-05-07 05:06:00,,0822.1,4.99,0.00,29.4,28.1,00.0,38.4,31.1,11.9,0000.0,0010.94,0003.48,0001.98
2022-05-07 05:07:00,,0822.1,5.00,0.00,29.4,28.2,00.0,38.4,31.1,11.6,0000.0,0010.55,0003.43,0001.98
2022-05-07 05:08:00,,0822.1,5.00,0.00,29.4,28.2,00.0,38.4,31.1,11.6,0000.0,0010.30,0003.44,0001.98
2022-05-07 05:09:00,,0822.1,5.01,0.00,29.4,28.2,00.0,38.4,31.1,11.6,0000.0,0010.96,0003.49,0001.99
2022-05-07 05:10:00,,0822.1,5.00,0.00,29.4,28.3,00.0,38.4,31.1,11.9,0000.0,0011.06,0003.56,0002.00
2022-05-07 05:11:00,,0822.0,5.00,0.00,29.3,28.3,00.0,38.4,31.1,12.1,0000.0,0010.94,0003.62,0002.04
2022-05-07 05:12:00,,0822.0,5.01,0.00,29.3,28.3,00.0,38.4,31.1,12.1,0000.0,0011.35,0003.75,0002.10
2022-05-07 05:13:00,,0821.9,5.00,0.00,29.3,28.4,00.0,38.4,31.1,12.1,0000.0,0011.30,0003.81,0002.15
2022-05-07 05:14:00,,0821.8,5.00,0.00,29.3,28.4,00.0,38.4,31.1,12.1,0000.0,0010.50,0003.88,0002.21
2022-05-07 05:15:00,,0822.0,5.00,0.00,29.3,28.4,00.0,38.4,31.1,11.8,0000.0,0010.23,0003.94,0002.24
2022-05-07 05:16:00,,0821.9,5.00,0.00,29.3,28.4,00.0,38.4,31.1,11.7,0000.0,0010.09,0003.94,0002.27
2022-05-07 05:17:00,,0821.8,4.98,0.00,29.3,28.4,00.0,38.4,31.2,11.6,0000.0,0010.16,0003.94,0002.31
2022-05-07 05:18:00,,0821.8,5.01,0.00,29.3,28.4,00.0,38.4,31.1,11.6,0000.0,0010.28,0003.98,0002.34
2022-05-07 05:19:00,,0821.8,5.00,0.00,29.3,28.5,00.0,38.4,31.1,11.5,0000.0,0010.19,0003.95,0002.36
2022-05-07 05:20:00,,0821.8,4.99,0.00,29.3,28.5,00.0,38.4,31.1,11.4,0000.0,0009.44,0003.92,0002.37
2022-05-07 05:21:00,,0821.7,5.01,0.00,29.3,28.5,00.0,38.4,31.1,11.4,0000.0,0009.52,0003.89,0002.39
2022-05-07 05:22:00,,0821.7,5.01,0.00,29.3,28.5,00.0,38.4,31.1,11.3,0000.0,0008.99,0003.77,0002.34
2022-05-07 05:23:00,,0821.7,4.99,0.00,29.3,28.5,00.0,38.4,31.1,11.2,0000.0,0009.13,0003.69,0002.29
2022-05-07 05:24:00,,0821.7,5.00,0.00,29.3,28.5,00.0,38.4,31.1,11.2,0000.0,0009.58,0003.70,0002.26
2022-05-07 05:25:00,,0821.7,5.01,0.00,29.3,28.5,00.0,38.4,31.1,11.0,0000.0,0009.74,0003.66,0002.22
2022-05-07 05:26:00,,0821.7,4.99,0.00,29.3,28.5,00.0,38.4,31.1,11.1,0000.0,0009.91,0003.64,0002.20
2022-05-07 05:27:00,,0821.7,5.01,0.00,29.4,28.6,00.0,38.3,31.1,11.2,0000.0,0010.26,0003.62,0002.17
2022-05-07 05:28:00,,0821.7,4.99,0.00,29.4,28.7,00.0,38.4,31.2,11.1,0000.0,0010.19,0003.62,0002.15
2022-05-07 05:29:00,,0821.6,5.00,0.00,29.4,28.7,00.0,38.4,31.3,11.0,0000.0,0010.36,0003.62,0002.14
2022-05-07 05:30:00,,0821.6,5.01,0.00,29.5,28.7,00.0,38.4,31.3,11.0,0000.0,0011.08,0003.62,0002.13
2022-05-07 05:31:00,,0821.5,5.00,0.00,29.5,28.7,00.0,38.4,31.3,11.3,0000.0,0012.46,0003.65,0002.11
2022-05-07 05:32:00,,0821.5,4.99,0.00,29.5,28.7,00.0,38.4,31.3,11.8,0000.0,0012.49,0003.65,0002.10
2022-05-07 05:33:00,,0821.5,5.01,0.00,29.5,28.7,00.0,38.4,31.3,11.5,0000.0,0013.01,0003.75,0002.11
2022-05-07 05:34:00,,0821.4,4.99,0.00,29.6,28.8,00.0,38.4,31.4,11.5,0000.0,0013.34,0003.79,0002.12
2022-05-07 05:35:00,,0821.4,5.00,0.00,29.6,28.8,00.0,38.4,31.4,11.4,0000.0,0014.08,0003.79,0002.11
2022-05-07 05:36:00,,0821.4,5.01,0.00,29.6,28.8,00.0,38.5,31.4,11.2,0000.0,0014.21,0003.80,0002.11
2022-05-07 05:37:00,,0821.4,5.01,0.00,29.6,28.8,00.0,38.5,31.4,11.0,0000.0,0013.88,0003.77,0002.11
2022-05-07 05:38:00,,0821.4,5.01,0.00,29.7,28.8,00.0,38.5,31.4,10.9,0000.0,0013.49,0003.75,0002.10
2022-05-07 05:39:00,,0821.4,5.00,0.00,29.7,28.8,00.0,38.5,31.5,10.9,0000.0,0013.65,0003.75,0002.08
2022-05-07 05:40:00,,0821.4,5.00,0.00,29.7,28.8,00.0,38.5,31.5,10.8,0000.0,0014.83,0003.76,0002.07
2022-05-07 05:41:00,,0821.3,5.01,0.00,29.7,28.8,00.0,38.5,31.5,10.6,0000.0,0014.12,0003.71,0002.05
2022-05-07 05:42:00,,0821.3,4.99,0.00,29.7,28.8,00.0,38.6,31.5,10.6,0000.0,0012.83,0003.68,0002.03
2022-05-07 05:43:00,,0821.3,5.00,0.00,29.8,28.8,00.0,38.6,31.5,10.6,0000.0,0012.70,0003.66,0002.03
2022-05-07 05:44:00,,0821.3,4.99,0.00,29.8,28.8,00.0,38.6,31.6,10.5,0000.0,0013.08,0003.62,0002.03
2022-05-07 05:45:00,,0821.3,5.00,0.00,29.8,28.8,00.0,38.6,31.6,10.6,0000.0,0013.01,0003.61,0002.04
2022-05-07 05:46:00,,0821.3,5.00,0.00,29.8,28.8,00.0,38.6,31.6,10.7,0000.0,0012.52,0003.62,0002.06
2022-05-07 05:47:00,,0821.3,5.00,0.00,29.8,28.9,00.0,38.6,31.6,10.6,0000.0,0012.44,0003.60,0002.05
2022-05-07 05:48:00,,0821.2,5.01,0.00,29.8,28.9,00.0,38.7,31.6,10.6,0000.0,0013.21,0003.63,0002.05
2022-05-07 05:49:00,,0821.3,4.99,0.00,29.8,28.9,00.0,38.7,31.6,10.8,0000.0,0013.11,0003.61,0002.05
2022-05-07 05:50:00,,0821.2,4.99,0.00,29.9,28.9,00.0,38.7,31.6,11.0,0000.0,0013.07,0003.63,0002.05
2022-05-07 05:51:00,,0821.2,5.00,0.00,29.9,28.9,00.0,38.7,31.6,11.0,0000.0,0012.43,0003.63,0002.07
2022-05-07 05:52:00,,0821.2,5.02,0.00,29.8,27.2,00.0,38.7,31.2,10.8,0000.0,0012.53,0003.66,0002.09
2022-05-07 05:53:00,,0821.2,4.99,0.00,29.7,25.5,00.0,38.7,30.9,10.9,0000.0,0012.46,0003.65,0002.09
2022-05-07 05:54:00,,0821.2,5.00,0.00,29.6,25.5,00.0,38.6,30.9,11.0,0000.0,0012.13,0003.63,0002.09
2022-05-07 05:55:00,,0821.2,4.99,0.00,29.5,26.0,00.0,38.6,30.9,11.3,0000.0,0011.09,0003.63,0002.09
2022-05-07 05:56:00,,0821.2,5.01,0.00,29.4,26.4,00.0,38.5,31.0,11.3,0000.0,0010.58,0003.60,0002.06
2022-05-07 05:57:00,,0821.2,4.99,0.00,29.4,26.9,00.0,38.5,31.0,11.2,0000.0,0009.83,0003.54,0002.03
2022-05-07 05:58:00,,0821.2,5.00,0.00,29.4,27.2,00.0,38.5,31.1,11.1,0000.0,0009.69,0003.56,0002.03
2022-05-07 05:59:00,,0821.2,5.01,0.00,29.4,27.5,00.0,38.5,31.1,11.2,0000.0,0009.05,0003.55,0002.01
